<?xml version='1.0' encoding='UTF-8'?>
<gpx xmlns="http://www.topografix.com/GPX/1/1" creator="www.balnam.be" version="1.1" xmlns:xsi="http://www.w3.org/2001/XMLSchema-instance" xsi:schemaLocation="http://www.topografix.com/GPX/1/1 http://www.topografix.com/GPX/1/1/gpx.xsd">
<trk>
<name>nlbsd1</name>
<cmt>r</cmt>
<desc>Saint-Denis Chemin n°1 Chemin de Canneveau / Rue de Cannevaux / Rue de Canneveaux / Rue de la Bruyére</desc>
<link href="https://chemins.be/saintdenis/chemin/1"/><trkseg>
<trkpt lat="50.523488" lon="4.783472"><time>2026-05-07T19:07:02Z</time></trkpt>
<trkpt lat="50.524637" lon="4.789025"><time>2026-05-07T19:17:02Z</time></trkpt>
<trkpt lat="50.525767" lon="4.792180"><time>2026-05-07T19:27:02Z</time></trkpt>
<trkpt lat="50.528134" lon="4.796390"><time>2026-05-07T19:37:02Z</time></trkpt>
<trkpt lat="50.531865" lon="4.801332"><time>2026-05-07T19:47:02Z</time></trkpt>
<trkpt lat="50.532244" lon="4.801011"><time>2026-05-07T19:57:02Z</time></trkpt>
<trkpt lat="50.534152" lon="4.805232"><time>2026-05-07T20:07:02Z</time></trkpt>
<trkpt lat="50.536787" lon="4.812042"><time>2026-05-07T20:17:02Z</time></trkpt>
</trkseg>
</trk>
<trk>
<name>nlbsd11</name>
<cmt>r</cmt>
<desc>Saint-Denis Chemin n°11 Rue de Beauffaux</desc>
<link href="https://chemins.be/saintdenis/chemin/11"/><trkseg>
<trkpt lat="50.535226" lon="4.781812"><time>2026-05-07T19:07:02Z</time></trkpt>
<trkpt lat="50.536537" lon="4.779863"><time>2026-05-07T19:17:02Z</time></trkpt>
<trkpt lat="50.537824" lon="4.776954"><time>2026-05-07T19:27:02Z</time></trkpt>
<trkpt lat="50.539136" lon="4.774595"><time>2026-05-07T19:37:02Z</time></trkpt>
<trkpt lat="50.539661" lon="4.773372"><time>2026-05-07T19:47:02Z</time></trkpt>
<trkpt lat="50.540473" lon="4.772688"><time>2026-05-07T19:57:02Z</time></trkpt>
<trkpt lat="50.541339" lon="4.771905"><time>2026-05-07T20:07:02Z</time></trkpt>
<trkpt lat="50.543109" lon="4.769451"><time>2026-05-07T20:17:02Z</time></trkpt>
</trkseg>
</trk>
<trk>
<name>nlbsd12</name>
<cmt>s</cmt>
<desc>Saint-Denis Chemin n°12 Chemin de la Bolette</desc>
<link href="https://chemins.be/saintdenis/chemin/12"/><trkseg>
<trkpt lat="50.543262" lon="4.769396"><time>2026-05-07T19:07:02Z</time></trkpt>
<trkpt lat="50.543894" lon="4.768541"><time>2026-05-07T19:17:02Z</time></trkpt>
<trkpt lat="50.535375" lon="4.757015"><time>2026-05-07T19:27:02Z</time></trkpt>
</trkseg></trk>
<trk>
<name>nlbsd12</name>
<cmt>r</cmt>
<desc>Saint-Denis Chemin n°12 Chemin de la Bolette</desc>
<link href="https://chemins.be/saintdenis/chemin/12"/><trkseg>
<trkpt lat="50.535375" lon="4.757015"><time>2026-05-07T19:27:02Z</time></trkpt>
<trkpt lat="50.534184" lon="4.755495"><time>2026-05-07T19:37:02Z</time></trkpt>
<trkpt lat="50.533901" lon="4.753998"><time>2026-05-07T19:47:02Z</time></trkpt>
</trkseg>
</trk>
<trk>
<name>nlbsd13</name>
<cmt>r</cmt>
<desc>Saint-Denis Chemin n°13 Chaussée d'Eghezée</desc>
<link href="https://chemins.be/saintdenis/chemin/13"/><trkseg>
<trkpt lat="50.535852" lon="4.785330"><time>2026-05-07T19:07:02Z</time></trkpt>
<trkpt lat="50.536442" lon="4.786421"><time>2026-05-07T19:17:02Z</time></trkpt>
<trkpt lat="50.536981" lon="4.786482"><time>2026-05-07T19:27:02Z</time></trkpt>
<trkpt lat="50.537331" lon="4.786669"><time>2026-05-07T19:37:02Z</time></trkpt>
<trkpt lat="50.538450" lon="4.788075"><time>2026-05-07T19:47:02Z</time></trkpt>
<trkpt lat="50.539451" lon="4.789692"><time>2026-05-07T19:57:02Z</time></trkpt>
</trkseg></trk>
<trk>
<name>nlbsd13</name>
<cmt>s</cmt>
<desc>Saint-Denis Chemin n°13 Chaussée d'Eghezée</desc>
<link href="https://chemins.be/saintdenis/chemin/13"/><trkseg>
<trkpt lat="50.539451" lon="4.789692"><time>2026-05-07T19:57:02Z</time></trkpt>
<trkpt lat="50.539773" lon="4.790034"><time>2026-05-07T20:07:02Z</time></trkpt>
<trkpt lat="50.541064" lon="4.790948"><time>2026-05-07T20:17:02Z</time></trkpt>
<trkpt lat="50.541384" lon="4.791939"><time>2026-05-07T20:27:02Z</time></trkpt>
</trkseg>
</trk>
<trk>
<name>nlbsd14</name>
<cmt>r</cmt>
<desc>Saint-Denis Chemin n°14 Rue du Moulin</desc>
<link href="https://chemins.be/saintdenis/chemin/14"/><trkseg>
<trkpt lat="50.533561" lon="4.787581"><time>2026-05-07T19:07:02Z</time></trkpt>
<trkpt lat="50.534043" lon="4.788417"><time>2026-05-07T19:17:02Z</time></trkpt>
<trkpt lat="50.535703" lon="4.789306"><time>2026-05-07T19:27:02Z</time></trkpt>
<trkpt lat="50.538306" lon="4.790613"><time>2026-05-07T19:37:02Z</time></trkpt>
<trkpt lat="50.539245" lon="4.789409"><time>2026-05-07T19:47:02Z</time></trkpt>
</trkseg>
</trk>
<trk>
<name>nlbsd15</name>
<cmt>r</cmt>
<desc>Saint-Denis Chemin n°15 Rue du Moulin</desc>
<link href="https://chemins.be/saintdenis/chemin/15"/><trkseg>
<trkpt lat="50.533192" lon="4.787662"><time>2026-05-07T19:07:02Z</time></trkpt>
<trkpt lat="50.531908" lon="4.787242"><time>2026-05-07T19:17:02Z</time></trkpt>
<trkpt lat="50.530305" lon="4.785337"><time>2026-05-07T19:27:02Z</time></trkpt>
<trkpt lat="50.529627" lon="4.783850"><time>2026-05-07T19:37:02Z</time></trkpt>
</trkseg>
</trk>
<trk>
<name>nlbsd16</name>
<cmt>s</cmt>
<desc>Saint-Denis Chemin n°16 Rue du Moulin / Rue du Trenoy / Rue Ange au Paradis</desc>
<link href="https://chemins.be/saintdenis/chemin/16"/><trkseg>
<trkpt lat="50.536714" lon="4.795734"><time>2026-05-07T19:07:02Z</time></trkpt>
<trkpt lat="50.537193" lon="4.794864"><time>2026-05-07T19:17:02Z</time></trkpt>
<trkpt lat="50.537583" lon="4.793936"><time>2026-05-07T19:27:02Z</time></trkpt>
<trkpt lat="50.538012" lon="4.792247"><time>2026-05-07T19:37:02Z</time></trkpt>
<trkpt lat="50.538251" lon="4.790655"><time>2026-05-07T19:47:02Z</time></trkpt>
</trkseg></trk>
<trk>
<name>nlbsd16</name>
<cmt>r</cmt>
<desc>Saint-Denis Chemin n°16 Rue du Moulin / Rue du Trenoy / Rue Ange au Paradis</desc>
<link href="https://chemins.be/saintdenis/chemin/16"/><trkseg>
<trkpt lat="50.538251" lon="4.790655"><time>2026-05-07T19:47:02Z</time></trkpt>
<trkpt lat="50.538603" lon="4.790306"><time>2026-05-07T19:57:02Z</time></trkpt>
<trkpt lat="50.539506" lon="4.789383"><time>2026-05-07T20:07:02Z</time></trkpt>
<trkpt lat="50.541348" lon="4.787114"><time>2026-05-07T20:17:02Z</time></trkpt>
<trkpt lat="50.541790" lon="4.786638"><time>2026-05-07T20:27:02Z</time></trkpt>
<trkpt lat="50.541846" lon="4.786088"><time>2026-05-07T20:37:02Z</time></trkpt>
<trkpt lat="50.542725" lon="4.784234"><time>2026-05-07T20:47:02Z</time></trkpt>
<trkpt lat="50.542952" lon="4.783431"><time>2026-05-07T20:57:02Z</time></trkpt>
</trkseg>
</trk>
<trk>
<name>nlbsd17</name>
<cmt>s</cmt>
<desc>Saint-Denis Chemin n°17 </desc>
<link href="https://chemins.be/saintdenis/chemin/17"/><trkseg>
<trkpt lat="50.537959" lon="4.781822"><time>2026-05-07T19:07:02Z</time></trkpt>
<trkpt lat="50.537342" lon="4.780899"><time>2026-05-07T19:17:02Z</time></trkpt>
<trkpt lat="50.536446" lon="4.780059"><time>2026-05-07T19:27:02Z</time></trkpt>
</trkseg>
</trk>
<trk>
<name>nlbsd18</name>
<cmt>v</cmt>
<desc>Saint-Denis Chemin n°18 Rue de la Digue Haibe</desc>
<link href="https://chemins.be/saintdenis/chemin/18"/><trkseg>
<trkpt lat="50.537950" lon="4.782047"><time>2026-05-07T19:07:02Z</time></trkpt>
<trkpt lat="50.538267" lon="4.781204"><time>2026-05-07T19:17:02Z</time></trkpt>
<trkpt lat="50.538214" lon="4.778622"><time>2026-05-07T19:27:02Z</time></trkpt>
<trkpt lat="50.538064" lon="4.777774"><time>2026-05-07T19:37:02Z</time></trkpt>
<trkpt lat="50.537806" lon="4.776968"><time>2026-05-07T19:47:02Z</time></trkpt>
</trkseg>
</trk>
<trk>
<name>nlbsd19</name>
<cmt>r</cmt>
<desc>Saint-Denis Chemin n°19 Rue Dutry</desc>
<link href="https://chemins.be/saintdenis/chemin/19"/><trkseg>
<trkpt lat="50.539000" lon="4.774890"><time>2026-05-07T19:07:02Z</time></trkpt>
<trkpt lat="50.539650" lon="4.776617"><time>2026-05-07T19:17:02Z</time></trkpt>
<trkpt lat="50.540499" lon="4.778021"><time>2026-05-07T19:27:02Z</time></trkpt>
<trkpt lat="50.540567" lon="4.779136"><time>2026-05-07T19:37:02Z</time></trkpt>
</trkseg>
</trk>
<trk>
<name>nlbsd2</name>
<cmt>r</cmt>
<desc>Saint-Denis Chemin n°2 Rue Cannevaux</desc>
<link href="https://chemins.be/saintdenis/chemin/2"/><trkseg>
<trkpt lat="50.532196" lon="4.800834"><time>2026-05-07T19:07:02Z</time></trkpt>
<trkpt lat="50.534595" lon="4.797982"><time>2026-05-07T19:17:02Z</time></trkpt>
<trkpt lat="50.536659" lon="4.795808"><time>2026-05-07T19:27:02Z</time></trkpt>
<trkpt lat="50.538378" lon="4.794735"><time>2026-05-07T19:37:02Z</time></trkpt>
<trkpt lat="50.539859" lon="4.793419"><time>2026-05-07T19:47:02Z</time></trkpt>
<trkpt lat="50.541132" lon="4.792432"><time>2026-05-07T19:57:02Z</time></trkpt>
</trkseg>
</trk>
<trk>
<name>nlbsd20</name>
<cmt>r</cmt>
<desc>Saint-Denis Chemin n°20 Rue du Surtry</desc>
<link href="https://chemins.be/saintdenis/chemin/20"/><trkseg>
<trkpt lat="50.539750" lon="4.776392"><time>2026-05-07T19:07:02Z</time></trkpt>
<trkpt lat="50.541131" lon="4.774852"><time>2026-05-07T19:17:02Z</time></trkpt>
</trkseg>
</trk>
<trk>
<name>nlbsd21</name>
<cmt>r</cmt>
<desc>Saint-Denis Chemin n°21 Rue du Surtia</desc>
<link href="https://chemins.be/saintdenis/chemin/21"/><trkseg>
<trkpt lat="50.540392" lon="4.772800"><time>2026-05-07T19:07:02Z</time></trkpt>
<trkpt lat="50.541149" lon="4.774796"><time>2026-05-07T19:17:02Z</time></trkpt>
<trkpt lat="50.542281" lon="4.777500"><time>2026-05-07T19:27:02Z</time></trkpt>
</trkseg>
</trk>
<trk>
<name>nlbsd22</name>
<cmt>v</cmt>
<desc>Saint-Denis Chemin n°22 Chemin du Try / Rue du Surfia / ? / Rues Les Trys</desc>
<link href="https://chemins.be/saintdenis/chemin/22"/><trkseg>
<trkpt lat="50.542930" lon="4.776984"><time>2026-05-07T19:07:02Z</time></trkpt>
<trkpt lat="50.542380" lon="4.777416"><time>2026-05-07T19:17:02Z</time></trkpt>
<trkpt lat="50.540575" lon="4.779376"><time>2026-05-07T19:27:02Z</time></trkpt>
</trkseg></trk>
<trk>
<name>nlbsd22</name>
<cmt>r</cmt>
<desc>Saint-Denis Chemin n°22 Chemin du Try / Rue du Surfia / ? / Rues Les Trys</desc>
<link href="https://chemins.be/saintdenis/chemin/22"/><trkseg>
<trkpt lat="50.540575" lon="4.779376"><time>2026-05-07T19:27:02Z</time></trkpt>
<trkpt lat="50.539027" lon="4.782367"><time>2026-05-07T19:37:02Z</time></trkpt>
</trkseg>
</trk>
<trk>
<name>nlbsd23</name>
<cmt>r</cmt>
<desc>Saint-Denis Chemin n°23 Rue du Stordoir</desc>
<link href="https://chemins.be/saintdenis/chemin/23"/><trkseg>
<trkpt lat="50.535360" lon="4.782039"><time>2026-05-07T19:07:02Z</time></trkpt>
<trkpt lat="50.535888" lon="4.782735"><time>2026-05-07T19:17:02Z</time></trkpt>
<trkpt lat="50.536596" lon="4.783559"><time>2026-05-07T19:27:02Z</time></trkpt>
<trkpt lat="50.537940" lon="4.782245"><time>2026-05-07T19:37:02Z</time></trkpt>
<trkpt lat="50.538694" lon="4.782660"><time>2026-05-07T19:47:02Z</time></trkpt>
<trkpt lat="50.538910" lon="4.782479"><time>2026-05-07T19:57:02Z</time></trkpt>
<trkpt lat="50.539473" lon="4.783330"><time>2026-05-07T20:07:02Z</time></trkpt>
</trkseg>
</trk>
<trk>
<name>nlbsd25</name>
<cmt>s</cmt>
<desc>Saint-Denis Chemin n°25 Petit Drèfe</desc>
<link href="https://chemins.be/saintdenis/chemin/25"/><trkseg>
<trkpt lat="50.533804" lon="4.798836"><time>2026-05-07T19:07:02Z</time></trkpt>
<trkpt lat="50.534269" lon="4.799543"><time>2026-05-07T19:17:02Z</time></trkpt>
<trkpt lat="50.534480" lon="4.801737"><time>2026-05-07T19:27:02Z</time></trkpt>
<trkpt lat="50.534174" lon="4.805215"><time>2026-05-07T19:37:02Z</time></trkpt>
</trkseg>
</trk>
<trk>
<name>nlbsd26</name>
<cmt>r</cmt>
<desc>Saint-Denis Chemin n°26 Rue du Hazoir</desc>
<link href="https://chemins.be/saintdenis/chemin/26"/><trkseg>
<trkpt lat="50.536741" lon="4.812493"><time>2026-05-07T19:07:02Z</time></trkpt>
<trkpt lat="50.534062" lon="4.817094"><time>2026-05-07T19:17:02Z</time></trkpt>
<trkpt lat="50.533665" lon="4.817344"><time>2026-05-07T19:27:02Z</time></trkpt>
</trkseg>
</trk>
<trk>
<name>nlbsd27</name>
<cmt>r</cmt>
<desc>Saint-Denis Chemin n°27 Ruelle Procès</desc>
<link href="https://chemins.be/saintdenis/chemin/27"/><trkseg>
<trkpt lat="50.533722" lon="4.780247"><time>2026-05-07T19:07:02Z</time></trkpt>
<trkpt lat="50.533941" lon="4.779318"><time>2026-05-07T19:17:02Z</time></trkpt>
<trkpt lat="50.534061" lon="4.778374"><time>2026-05-07T19:27:02Z</time></trkpt>
</trkseg>
</trk>
<trk>
<name>nlbsd28</name>
<cmt>s</cmt>
<desc>Saint-Denis Chemin n°28 </desc>
<link href="https://chemins.be/saintdenis/chemin/28"/><trkseg>
<trkpt lat="50.529885" lon="4.777040"><time>2026-05-07T19:07:02Z</time></trkpt>
<trkpt lat="50.530139" lon="4.776478"><time>2026-05-07T19:17:02Z</time></trkpt>
<trkpt lat="50.530393" lon="4.775874"><time>2026-05-07T19:27:02Z</time></trkpt>
</trkseg>
</trk>
<trk>
<name>nlbsd29</name>
<cmt>r</cmt>
<desc>Saint-Denis Chemin n°29 Rue du Surfia / Rue du Surtia</desc>
<link href="https://chemins.be/saintdenis/chemin/29"/><trkseg>
<trkpt lat="50.543241" lon="4.778002"><time>2026-05-07T19:07:02Z</time></trkpt>
<trkpt lat="50.543359" lon="4.777820"><time>2026-05-07T19:17:02Z</time></trkpt>
<trkpt lat="50.543011" lon="4.777027"><time>2026-05-07T19:27:02Z</time></trkpt>
<trkpt lat="50.542912" lon="4.777082"><time>2026-05-07T19:37:02Z</time></trkpt>
<trkpt lat="50.542573" lon="4.776205"><time>2026-05-07T19:47:02Z</time></trkpt>
</trkseg>
</trk>
<trk>
<name>nlbsd3</name>
<cmt>r</cmt>
<desc>Saint-Denis Chemin n°3 Rue Reine Elisabeth</desc>
<link href="https://chemins.be/saintdenis/chemin/3"/><trkseg>
<trkpt lat="50.535404" lon="4.784987"><time>2026-05-07T19:07:02Z</time></trkpt>
<trkpt lat="50.534818" lon="4.785335"><time>2026-05-07T19:17:02Z</time></trkpt>
<trkpt lat="50.533626" lon="4.786946"><time>2026-05-07T19:27:02Z</time></trkpt>
<trkpt lat="50.533543" lon="4.787595"><time>2026-05-07T19:37:02Z</time></trkpt>
<trkpt lat="50.533084" lon="4.787703"><time>2026-05-07T19:47:02Z</time></trkpt>
<trkpt lat="50.532856" lon="4.788392"><time>2026-05-07T19:57:02Z</time></trkpt>
<trkpt lat="50.531546" lon="4.790341"><time>2026-05-07T20:07:02Z</time></trkpt>
<trkpt lat="50.528261" lon="4.796081"><time>2026-05-07T20:17:02Z</time></trkpt>
</trkseg>
</trk>
<trk>
<name>nlbsd30</name>
<cmt>s</cmt>
<desc>Saint-Denis Sentier n°30 </desc>
<link href="https://chemins.be/saintdenis/sentier/30"/><trkseg>
<trkpt lat="50.533062" lon="4.783824"><time>2026-05-07T19:07:02Z</time></trkpt>
<trkpt lat="50.533012" lon="4.785178"><time>2026-05-07T19:17:02Z</time></trkpt>
<trkpt lat="50.532352" lon="4.786230"><time>2026-05-07T19:27:02Z</time></trkpt>
<trkpt lat="50.531603" lon="4.786872"><time>2026-05-07T19:37:02Z</time></trkpt>
</trkseg></trk>
<trk>
<name>nlbsd30</name>
<cmt>v</cmt>
<desc>Saint-Denis Sentier n°30 </desc>
<link href="https://chemins.be/saintdenis/sentier/30"/><trkseg>
<trkpt lat="50.531603" lon="4.786872"><time>2026-05-07T19:37:02Z</time></trkpt>
<trkpt lat="50.530828" lon="4.787500"><time>2026-05-07T19:47:02Z</time></trkpt>
</trkseg></trk>
<trk>
<name>nlbsd30</name>
<cmt>s</cmt>
<desc>Saint-Denis Sentier n°30 </desc>
<link href="https://chemins.be/saintdenis/sentier/30"/><trkseg>
<trkpt lat="50.530828" lon="4.787500"><time>2026-05-07T19:47:02Z</time></trkpt>
<trkpt lat="50.530053" lon="4.788057"><time>2026-05-07T19:57:02Z</time></trkpt>
<trkpt lat="50.529989" lon="4.788282"><time>2026-05-07T20:07:02Z</time></trkpt>
<trkpt lat="50.529827" lon="4.788225"><time>2026-05-07T20:17:02Z</time></trkpt>
<trkpt lat="50.529665" lon="4.788350"><time>2026-05-07T20:27:02Z</time></trkpt>
<trkpt lat="50.529106" lon="4.788839"><time>2026-05-07T20:37:02Z</time></trkpt>
</trkseg></trk>
<trk>
<name>nlbsd30</name>
<cmt>v</cmt>
<desc>Saint-Denis Sentier n°30 </desc>
<link href="https://chemins.be/saintdenis/sentier/30"/><trkseg>
<trkpt lat="50.529106" lon="4.788839"><time>2026-05-07T20:37:02Z</time></trkpt>
<trkpt lat="50.527662" lon="4.790335"><time>2026-05-07T20:47:02Z</time></trkpt>
<trkpt lat="50.526392" lon="4.791085"><time>2026-05-07T20:57:02Z</time></trkpt>
<trkpt lat="50.526058" lon="4.791322"><time>2026-05-07T21:07:02Z</time></trkpt>
<trkpt lat="50.525687" lon="4.791939"><time>2026-05-07T21:17:02Z</time></trkpt>
</trkseg>
</trk>
<trk>
<name>nlbsd31</name>
<cmt>s</cmt>
<desc>Saint-Denis Sentier n°31 </desc>
<link href="https://chemins.be/saintdenis/sentier/31"/><trkseg>
<trkpt lat="50.529410" lon="4.776585"><time>2026-05-07T19:07:02Z</time></trkpt>
<trkpt lat="50.528378" lon="4.773656"><time>2026-05-07T19:17:02Z</time></trkpt>
<trkpt lat="50.525295" lon="4.768059"><time>2026-05-07T19:27:02Z</time></trkpt>
<trkpt lat="50.525217" lon="4.767382"><time>2026-05-07T19:37:02Z</time></trkpt>
<trkpt lat="50.523771" lon="4.764323"><time>2026-05-07T19:47:02Z</time></trkpt>
<trkpt lat="50.522681" lon="4.762185"><time>2026-05-07T19:57:02Z</time></trkpt>
</trkseg>
</trk>
<trk>
<name>nlbsd32</name>
<cmt>s</cmt>
<desc>Saint-Denis Sentier n°32 Rue de Cannevaux</desc>
<link href="https://chemins.be/saintdenis/sentier/32"/><trkseg>
<trkpt lat="50.529831" lon="4.777096"><time>2026-05-07T19:07:02Z</time></trkpt>
<trkpt lat="50.528900" lon="4.778372"><time>2026-05-07T19:17:02Z</time></trkpt>
<trkpt lat="50.528324" lon="4.778691"><time>2026-05-07T19:27:02Z</time></trkpt>
<trkpt lat="50.526239" lon="4.780887"><time>2026-05-07T19:37:02Z</time></trkpt>
<trkpt lat="50.525860" lon="4.781293"><time>2026-05-07T19:47:02Z</time></trkpt>
<trkpt lat="50.525478" lon="4.782672"><time>2026-05-07T19:57:02Z</time></trkpt>
</trkseg></trk>
<trk>
<name>nlbsd32</name>
<cmt>r</cmt>
<desc>Saint-Denis Sentier n°32 Rue de Cannevaux</desc>
<link href="https://chemins.be/saintdenis/sentier/32"/><trkseg>
<trkpt lat="50.525478" lon="4.782672"><time>2026-05-07T19:57:02Z</time></trkpt>
<trkpt lat="50.524846" lon="4.783498"><time>2026-05-07T20:07:02Z</time></trkpt>
<trkpt lat="50.523524" lon="4.783599"><time>2026-05-07T20:17:02Z</time></trkpt>
</trkseg>
</trk>
<trk>
<name>nlbsd33</name>
<cmt>s</cmt>
<desc>Saint-Denis Sentier n°33 Rue Grande Campagne</desc>
<link href="https://chemins.be/saintdenis/sentier/33"/><trkseg>
<trkpt lat="50.535920" lon="4.786614"><time>2026-05-07T19:07:02Z</time></trkpt>
<trkpt lat="50.535686" lon="4.789179"><time>2026-05-07T19:17:02Z</time></trkpt>
</trkseg></trk>
<trk>
<name>nlbsd33</name>
<cmt>r</cmt>
<desc>Saint-Denis Sentier n°33 Rue Grande Campagne</desc>
<link href="https://chemins.be/saintdenis/sentier/33"/><trkseg>
<trkpt lat="50.535686" lon="4.789179"><time>2026-05-07T19:17:02Z</time></trkpt>
<trkpt lat="50.535594" lon="4.792197"><time>2026-05-07T19:27:02Z</time></trkpt>
</trkseg></trk>
<trk>
<name>nlbsd33</name>
<cmt>d</cmt>
<desc>Saint-Denis Sentier n°33 Rue Grande Campagne</desc>
<link href="https://chemins.be/saintdenis/sentier/33"/><trkseg>
<trkpt lat="50.535594" lon="4.792197"><time>2026-05-07T19:27:02Z</time></trkpt>
<trkpt lat="50.535501" lon="4.792874"><time>2026-05-07T19:37:02Z</time></trkpt>
</trkseg></trk>
<trk>
<name>nlbsd33</name>
<cmt>s</cmt>
<desc>Saint-Denis Sentier n°33 Rue Grande Campagne</desc>
<link href="https://chemins.be/saintdenis/sentier/33"/><trkseg>
<trkpt lat="50.535501" lon="4.792874"><time>2026-05-07T19:37:02Z</time></trkpt>
<trkpt lat="50.534539" lon="4.797887"><time>2026-05-07T19:47:02Z</time></trkpt>
</trkseg>
</trk>
<trk>
<name>nlbsd34</name>
<cmt>b</cmt>
<desc>Saint-Denis Sentier n°34 </desc>
<link href="https://chemins.be/saintdenis/sentier/34"/><trkseg>
<trkpt lat="50.534070" lon="4.788305"><time>2026-05-07T19:07:02Z</time></trkpt>
<trkpt lat="50.535242" lon="4.787581"><time>2026-05-07T19:17:02Z</time></trkpt>
<trkpt lat="50.535729" lon="4.787205"><time>2026-05-07T19:27:02Z</time></trkpt>
</trkseg></trk>
<trk>
<name>nlbsd34</name>
<cmt>v</cmt>
<desc>Saint-Denis Sentier n°34 </desc>
<link href="https://chemins.be/saintdenis/sentier/34"/><trkseg>
<trkpt lat="50.535729" lon="4.787205"><time>2026-05-07T19:27:02Z</time></trkpt>
<trkpt lat="50.536143" lon="4.786898"><time>2026-05-07T19:37:02Z</time></trkpt>
<trkpt lat="50.536468" lon="4.786633"><time>2026-05-07T19:47:02Z</time></trkpt>
<trkpt lat="50.536564" lon="4.787311"><time>2026-05-07T19:57:02Z</time></trkpt>
</trkseg>
</trk>
<trk>
<name>nlbsd35</name>
<cmt>s</cmt>
<desc>Saint-Denis Sentier n°35 </desc>
<link href="https://chemins.be/saintdenis/sentier/35"/><trkseg>
<trkpt lat="50.535816" lon="4.785400"><time>2026-05-07T19:07:02Z</time></trkpt>
<trkpt lat="50.535626" lon="4.785695"><time>2026-05-07T19:17:02Z</time></trkpt>
<trkpt lat="50.535589" lon="4.785892"><time>2026-05-07T19:27:02Z</time></trkpt>
<trkpt lat="50.534894" lon="4.786788"><time>2026-05-07T19:37:02Z</time></trkpt>
<trkpt lat="50.533766" lon="4.787822"><time>2026-05-07T19:47:02Z</time></trkpt>
</trkseg>
</trk>
<trk>
<name>nlbsd36</name>
<cmt>s</cmt>
<desc>Saint-Denis Sentier n°36 </desc>
<link href="https://chemins.be/saintdenis/sentier/36"/><trkseg>
<trkpt lat="50.535580" lon="4.785962"><time>2026-05-07T19:07:02Z</time></trkpt>
<trkpt lat="50.535938" lon="4.786614"><time>2026-05-07T19:17:02Z</time></trkpt>
<trkpt lat="50.536098" lon="4.786870"><time>2026-05-07T19:27:02Z</time></trkpt>
<trkpt lat="50.536537" lon="4.787367"><time>2026-05-07T19:37:02Z</time></trkpt>
<trkpt lat="50.537039" lon="4.787879"><time>2026-05-07T19:47:02Z</time></trkpt>
<trkpt lat="50.538117" lon="4.790640"><time>2026-05-07T19:57:02Z</time></trkpt>
<trkpt lat="50.538029" lon="4.792346"><time>2026-05-07T20:07:02Z</time></trkpt>
<trkpt lat="50.538813" lon="4.794314"><time>2026-05-07T20:17:02Z</time></trkpt>
</trkseg>
</trk>
<trk>
<name>nlbsd37</name>
<cmt>v</cmt>
<desc>Saint-Denis Sentier n°37 Rue de Beauffaux</desc>
<link href="https://chemins.be/saintdenis/sentier/37"/><trkseg>
<trkpt lat="50.536963" lon="4.786383"><time>2026-05-07T19:07:02Z</time></trkpt>
<trkpt lat="50.537234" lon="4.786090"><time>2026-05-07T19:17:02Z</time></trkpt>
</trkseg></trk>
<trk>
<name>nlbsd37</name>
<cmt>s</cmt>
<desc>Saint-Denis Sentier n°37 Rue de Beauffaux</desc>
<link href="https://chemins.be/saintdenis/sentier/37"/><trkseg>
<trkpt lat="50.537234" lon="4.786090"><time>2026-05-07T19:17:02Z</time></trkpt>
<trkpt lat="50.537803" lon="4.785446"><time>2026-05-07T19:27:02Z</time></trkpt>
</trkseg></trk>
<trk>
<name>nlbsd37</name>
<cmt>q</cmt>
<desc>Saint-Denis Sentier n°37 Rue de Beauffaux</desc>
<link href="https://chemins.be/saintdenis/sentier/37"/><trkseg>
<trkpt lat="50.537803" lon="4.785446"><time>2026-05-07T19:27:02Z</time></trkpt>
<trkpt lat="50.539518" lon="4.783331"><time>2026-05-07T19:37:02Z</time></trkpt>
<trkpt lat="50.541497" lon="4.780653"><time>2026-05-07T19:47:02Z</time></trkpt>
<trkpt lat="50.543223" lon="4.778016"><time>2026-05-07T19:57:02Z</time></trkpt>
</trkseg></trk>
<trk>
<name>nlbsd37</name>
<cmt>s</cmt>
<desc>Saint-Denis Sentier n°37 Rue de Beauffaux</desc>
<link href="https://chemins.be/saintdenis/sentier/37"/><trkseg>
<trkpt lat="50.543223" lon="4.778016"><time>2026-05-07T19:57:02Z</time></trkpt>
<trkpt lat="50.543503" lon="4.777623"><time>2026-05-07T20:07:02Z</time></trkpt>
<trkpt lat="50.543668" lon="4.776905"><time>2026-05-07T20:17:02Z</time></trkpt>
<trkpt lat="50.544182" lon="4.776275"><time>2026-05-07T20:27:02Z</time></trkpt>
<trkpt lat="50.544755" lon="4.774432"><time>2026-05-07T20:37:02Z</time></trkpt>
<trkpt lat="50.545550" lon="4.773451"><time>2026-05-07T20:47:02Z</time></trkpt>
<trkpt lat="50.547710" lon="4.770139"><time>2026-05-07T20:57:02Z</time></trkpt>
<trkpt lat="50.548806" lon="4.767708"><time>2026-05-07T21:07:02Z</time></trkpt>
<trkpt lat="50.549253" lon="4.765933"><time>2026-05-07T21:17:02Z</time></trkpt>
<trkpt lat="50.549544" lon="4.764948"><time>2026-05-07T21:27:02Z</time></trkpt>
<trkpt lat="50.549851" lon="4.761903"><time>2026-05-07T21:37:02Z</time></trkpt>
</trkseg></trk>
<trk>
<name>nlbsd37</name>
<cmt>r</cmt>
<desc>Saint-Denis Sentier n°37 Rue de Beauffaux</desc>
<link href="https://chemins.be/saintdenis/sentier/37"/><trkseg>
<trkpt lat="50.549851" lon="4.761903"><time>2026-05-07T21:37:02Z</time></trkpt>
<trkpt lat="50.550280" lon="4.759889"><time>2026-05-07T21:47:02Z</time></trkpt>
</trkseg>
</trk>
<trk>
<name>nlbsd38</name>
<cmt>v</cmt>
<desc>Saint-Denis Sentier n°38 </desc>
<link href="https://chemins.be/saintdenis/sentier/38"/><trkseg>
<trkpt lat="50.536703" lon="4.783870"><time>2026-05-07T19:07:02Z</time></trkpt>
<trkpt lat="50.537042" lon="4.784564"><time>2026-05-07T19:17:02Z</time></trkpt>
</trkseg></trk>
<trk>
<name>nlbsd38</name>
<cmt>s</cmt>
<desc>Saint-Denis Sentier n°38 </desc>
<link href="https://chemins.be/saintdenis/sentier/38"/><trkseg>
<trkpt lat="50.537042" lon="4.784564"><time>2026-05-07T19:17:02Z</time></trkpt>
<trkpt lat="50.537301" lon="4.785089"><time>2026-05-07T19:27:02Z</time></trkpt>
<trkpt lat="50.537821" lon="4.785432"><time>2026-05-07T19:37:02Z</time></trkpt>
<trkpt lat="50.539410" lon="4.786123"><time>2026-05-07T19:47:02Z</time></trkpt>
<trkpt lat="50.541044" lon="4.786589"><time>2026-05-07T19:57:02Z</time></trkpt>
<trkpt lat="50.541294" lon="4.787099"><time>2026-05-07T20:07:02Z</time></trkpt>
</trkseg>
</trk>
<trk>
<name>nlbsd39</name>
<cmt>s</cmt>
<desc>Saint-Denis Sentier n°39 </desc>
<link href="https://chemins.be/saintdenis/sentier/39"/><trkseg>
<trkpt lat="50.534475" lon="4.785699"><time>2026-05-07T19:07:02Z</time></trkpt>
<trkpt lat="50.534110" lon="4.784778"><time>2026-05-07T19:17:02Z</time></trkpt>
</trkseg></trk>
<trk>
<name>nlbsd39</name>
<cmt>d</cmt>
<desc>Saint-Denis Sentier n°39 </desc>
<link href="https://chemins.be/saintdenis/sentier/39"/><trkseg>
<trkpt lat="50.534110" lon="4.784778"><time>2026-05-07T19:17:02Z</time></trkpt>
<trkpt lat="50.534426" lon="4.784316"><time>2026-05-07T19:27:02Z</time></trkpt>
<trkpt lat="50.534150" lon="4.783805"><time>2026-05-07T19:37:02Z</time></trkpt>
</trkseg></trk>
<trk>
<name>nlbsd39</name>
<cmt>s</cmt>
<desc>Saint-Denis Sentier n°39 </desc>
<link href="https://chemins.be/saintdenis/sentier/39"/><trkseg>
<trkpt lat="50.534150" lon="4.783805"><time>2026-05-07T19:37:02Z</time></trkpt>
<trkpt lat="50.533044" lon="4.783810"><time>2026-05-07T19:47:02Z</time></trkpt>
<trkpt lat="50.532802" lon="4.783469"><time>2026-05-07T19:57:02Z</time></trkpt>
<trkpt lat="50.532588" lon="4.783129"><time>2026-05-07T20:07:02Z</time></trkpt>
</trkseg>
</trk>
<trk>
<name>nlbsd4</name>
<cmt>r</cmt>
<desc>Saint-Denis Chemin n°4 Chemin de Noly / Rue du Noly / Vieux Chemin des Isnes / ? / Chaussée de Namur / Chemin n°4 de Saint-Denis</desc>
<link href="https://chemins.be/saintdenis/chemin/4"/><trkseg>
<trkpt lat="50.535325" lon="4.781996"><time>2026-05-07T19:07:02Z</time></trkpt>
<trkpt lat="50.532208" lon="4.778640"><time>2026-05-07T19:17:02Z</time></trkpt>
<trkpt lat="50.529230" lon="4.776569"><time>2026-05-07T19:27:02Z</time></trkpt>
<trkpt lat="50.527105" lon="4.774943"><time>2026-05-07T19:37:02Z</time></trkpt>
<trkpt lat="50.524694" lon="4.773061"><time>2026-05-07T19:47:02Z</time></trkpt>
<trkpt lat="50.521976" lon="4.771162"><time>2026-05-07T19:57:02Z</time></trkpt>
<trkpt lat="50.520499" lon="4.769386"><time>2026-05-07T20:07:02Z</time></trkpt>
<trkpt lat="50.519130" lon="4.767344"><time>2026-05-07T20:17:02Z</time></trkpt>
<trkpt lat="50.520190" lon="4.765083"><time>2026-05-07T20:27:02Z</time></trkpt>
</trkseg></trk>
<trk>
<name>nlbsd4</name>
<cmt>s</cmt>
<desc>Saint-Denis Chemin n°4 Chemin de Noly / Rue du Noly / Vieux Chemin des Isnes / ? / Chaussée de Namur / Chemin n°4 de Saint-Denis</desc>
<link href="https://chemins.be/saintdenis/chemin/4"/><trkseg>
<trkpt lat="50.520190" lon="4.765083"><time>2026-05-07T20:27:02Z</time></trkpt>
<trkpt lat="50.522214" lon="4.761955"><time>2026-05-07T20:37:02Z</time></trkpt>
<trkpt lat="50.522565" lon="4.761817"><time>2026-05-07T20:47:02Z</time></trkpt>
</trkseg></trk>
<trk>
<name>nlbsd4</name>
<cmt>v</cmt>
<desc>Saint-Denis Chemin n°4 Chemin de Noly / Rue du Noly / Vieux Chemin des Isnes / ? / Chaussée de Namur / Chemin n°4 de Saint-Denis</desc>
<link href="https://chemins.be/saintdenis/chemin/4"/><trkseg>
<trkpt lat="50.522565" lon="4.761817"><time>2026-05-07T20:47:02Z</time></trkpt>
<trkpt lat="50.523658" lon="4.760430"><time>2026-05-07T20:57:02Z</time></trkpt>
<trkpt lat="50.524453" lon="4.759379"><time>2026-05-07T21:07:02Z</time></trkpt>
<trkpt lat="50.526199" lon="4.756121"><time>2026-05-07T21:17:02Z</time></trkpt>
<trkpt lat="50.526579" lon="4.755349"><time>2026-05-07T21:27:02Z</time></trkpt>
</trkseg>
</trk>
<trk>
<name>nlbsd40</name>
<cmt>s</cmt>
<desc>Saint-Denis Sentier n°40 </desc>
<link href="https://chemins.be/saintdenis/sentier/40"/><trkseg>
<trkpt lat="50.535244" lon="4.781967"><time>2026-05-07T19:07:02Z</time></trkpt>
<trkpt lat="50.534656" lon="4.782978"><time>2026-05-07T19:17:02Z</time></trkpt>
<trkpt lat="50.534150" lon="4.783777"><time>2026-05-07T19:27:02Z</time></trkpt>
</trkseg>
</trk>
<trk>
<name>nlbsd41</name>
<cmt>b</cmt>
<desc>Saint-Denis Sentier n°41 </desc>
<link href="https://chemins.be/saintdenis/sentier/41"/><trkseg>
<trkpt lat="50.535841" lon="4.781027"><time>2026-05-07T19:07:02Z</time></trkpt>
<trkpt lat="50.536171" lon="4.781510"><time>2026-05-07T19:17:02Z</time></trkpt>
<trkpt lat="50.536815" lon="4.782531"><time>2026-05-07T19:27:02Z</time></trkpt>
<trkpt lat="50.537083" lon="4.782943"><time>2026-05-07T19:37:02Z</time></trkpt>
</trkseg>
</trk>
<trk>
<name>nlbsd42</name>
<cmt>s</cmt>
<desc>Saint-Denis Sentier n°42 </desc>
<link href="https://chemins.be/saintdenis/sentier/42"/><trkseg>
<trkpt lat="50.540909" lon="4.778998"><time>2026-05-07T19:07:02Z</time></trkpt>
<trkpt lat="50.541632" lon="4.780429"><time>2026-05-07T19:17:02Z</time></trkpt>
<trkpt lat="50.541560" lon="4.780583"><time>2026-05-07T19:27:02Z</time></trkpt>
<trkpt lat="50.543079" lon="4.783193"><time>2026-05-07T19:37:02Z</time></trkpt>
</trkseg>
</trk>
<trk>
<name>nlbsd43</name>
<cmt>v</cmt>
<desc>Saint-Denis Sentier n°43 Rue du Surtia / ?</desc>
<link href="https://chemins.be/saintdenis/sentier/43"/><trkseg>
<trkpt lat="50.544429" lon="4.780326"><time>2026-05-07T19:07:02Z</time></trkpt>
<trkpt lat="50.543214" lon="4.778016"><time>2026-05-07T19:17:02Z</time></trkpt>
</trkseg></trk>
<trk>
<name>nlbsd43</name>
<cmt>r</cmt>
<desc>Saint-Denis Sentier n°43 Rue du Surtia / ?</desc>
<link href="https://chemins.be/saintdenis/sentier/43"/><trkseg>
<trkpt lat="50.543214" lon="4.778016"><time>2026-05-07T19:17:02Z</time></trkpt>
<trkpt lat="50.543368" lon="4.777806"><time>2026-05-07T19:27:02Z</time></trkpt>
<trkpt lat="50.543020" lon="4.777027"><time>2026-05-07T19:37:02Z</time></trkpt>
<trkpt lat="50.542903" lon="4.777096"><time>2026-05-07T19:47:02Z</time></trkpt>
<trkpt lat="50.542564" lon="4.776162"><time>2026-05-07T19:57:02Z</time></trkpt>
</trkseg></trk>
<trk>
<name>nlbsd43</name>
<cmt>v</cmt>
<desc>Saint-Denis Sentier n°43 Rue du Surtia / ?</desc>
<link href="https://chemins.be/saintdenis/sentier/43"/><trkseg>
<trkpt lat="50.542564" lon="4.776162"><time>2026-05-07T19:57:02Z</time></trkpt>
<trkpt lat="50.542449" lon="4.775893"><time>2026-05-07T20:07:02Z</time></trkpt>
</trkseg></trk>
<trk>
<name>nlbsd43</name>
<cmt>s</cmt>
<desc>Saint-Denis Sentier n°43 Rue du Surtia / ?</desc>
<link href="https://chemins.be/saintdenis/sentier/43"/><trkseg>
<trkpt lat="50.542449" lon="4.775893"><time>2026-05-07T20:07:02Z</time></trkpt>
<trkpt lat="50.541032" lon="4.772312"><time>2026-05-07T20:17:02Z</time></trkpt>
</trkseg>
</trk>
<trk>
<name>nlbsd44</name>
<cmt>s</cmt>
<desc>Saint-Denis Sentier n°44 </desc>
<link href="https://chemins.be/saintdenis/sentier/44"/><trkseg>
<trkpt lat="50.541123" lon="4.774485"><time>2026-05-07T19:07:02Z</time></trkpt>
<trkpt lat="50.541655" lon="4.773925"><time>2026-05-07T19:17:02Z</time></trkpt>
<trkpt lat="50.543727" lon="4.770120"><time>2026-05-07T19:27:02Z</time></trkpt>
</trkseg>
</trk>
<trk>
<name>nlbsd45</name>
<cmt>s</cmt>
<desc>Saint-Denis Sentier n°45 </desc>
<link href="https://chemins.be/saintdenis/sentier/45"/><trkseg>
<trkpt lat="50.547180" lon="4.775271"><time>2026-05-07T19:07:02Z</time></trkpt>
<trkpt lat="50.547257" lon="4.771180"><time>2026-05-07T19:17:02Z</time></trkpt>
</trkseg>
</trk>
<trk>
<name>nlbsd46</name>
<cmt>s</cmt>
<desc>Saint-Denis Sentier n°46 </desc>
<link href="https://chemins.be/saintdenis/sentier/46"/><trkseg>
<trkpt lat="50.550378" lon="4.760087"><time>2026-05-07T19:07:02Z</time></trkpt>
<trkpt lat="50.550750" lon="4.761783"><time>2026-05-07T19:17:02Z</time></trkpt>
<trkpt lat="50.551278" lon="4.765132"><time>2026-05-07T19:27:02Z</time></trkpt>
</trkseg>
</trk>
<trk>
<name>nlbsd47</name>
<cmt>s</cmt>
<desc>Saint-Denis Sentier n°47 Rue des Bruyères / ?</desc>
<link href="https://chemins.be/saintdenis/sentier/47"/><trkseg>
<trkpt lat="50.538739" lon="4.774930"><time>2026-05-07T19:07:02Z</time></trkpt>
<trkpt lat="50.536595" lon="4.773430"><time>2026-05-07T19:17:02Z</time></trkpt>
</trkseg></trk>
<trk>
<name>nlbsd47</name>
<cmt>r</cmt>
<desc>Saint-Denis Sentier n°47 Rue des Bruyères / ?</desc>
<link href="https://chemins.be/saintdenis/sentier/47"/><trkseg>
<trkpt lat="50.536595" lon="4.773430"><time>2026-05-07T19:17:02Z</time></trkpt>
<trkpt lat="50.536079" lon="4.772030"><time>2026-05-07T19:27:02Z</time></trkpt>
<trkpt lat="50.535233" lon="4.769526"><time>2026-05-07T19:37:02Z</time></trkpt>
</trkseg></trk>
<trk>
<name>nlbsd47</name>
<cmt>s</cmt>
<desc>Saint-Denis Sentier n°47 Rue des Bruyères / ?</desc>
<link href="https://chemins.be/saintdenis/sentier/47"/><trkseg>
<trkpt lat="50.535233" lon="4.769526"><time>2026-05-07T19:37:02Z</time></trkpt>
<trkpt lat="50.533441" lon="4.765293"><time>2026-05-07T19:47:02Z</time></trkpt>
<trkpt lat="50.531596" lon="4.760552"><time>2026-05-07T19:57:02Z</time></trkpt>
</trkseg>
</trk>
<trk>
<name>nlbsd48</name>
<cmt>s</cmt>
<desc>Saint-Denis Sentier n°48 </desc>
<link href="https://chemins.be/saintdenis/sentier/48"/><trkseg>
<trkpt lat="50.537081" lon="4.778555"><time>2026-05-07T19:07:02Z</time></trkpt>
<trkpt lat="50.537201" lon="4.775185"><time>2026-05-07T19:17:02Z</time></trkpt>
</trkseg>
</trk>
<trk>
<name>nlbsd49</name>
<cmt>r</cmt>
<desc>Saint-Denis Chemin n°49 Rue des Bruyères</desc>
<link href="https://chemins.be/saintdenis/chemin/49"/><trkseg>
<trkpt lat="50.537780" lon="4.776657"><time>2026-05-07T19:07:02Z</time></trkpt>
<trkpt lat="50.536623" lon="4.773346"><time>2026-05-07T19:17:02Z</time></trkpt>
<trkpt lat="50.536115" lon="4.772044"><time>2026-05-07T19:27:02Z</time></trkpt>
</trkseg>
</trk>
<trk>
<name>nlbsd5</name>
<cmt>r</cmt>
<desc>Saint-Denis Chemin n°5 Ruelle Mouchet</desc>
<link href="https://chemins.be/saintdenis/chemin/5"/><trkseg>
<trkpt lat="50.534178" lon="4.780900"><time>2026-05-07T19:07:02Z</time></trkpt>
<trkpt lat="50.532480" lon="4.783100"><time>2026-05-07T19:17:02Z</time></trkpt>
<trkpt lat="50.529925" lon="4.783599"><time>2026-05-07T19:27:02Z</time></trkpt>
<trkpt lat="50.528565" lon="4.784151"><time>2026-05-07T19:37:02Z</time></trkpt>
</trkseg>
</trk>
<trk>
<name>nlbsd50</name>
<cmt>s</cmt>
<desc>Saint-Denis Sentier n°50 </desc>
<link href="https://chemins.be/saintdenis/sentier/50"/><trkseg>
<trkpt lat="50.541127" lon="4.791104"><time>2026-05-07T19:07:02Z</time></trkpt>
<trkpt lat="50.542303" lon="4.791383"><time>2026-05-07T19:17:02Z</time></trkpt>
</trkseg>
</trk>
<trk>
<name>nlbsd51</name>
<cmt>s</cmt>
<desc>Saint-Denis Sentier n°51 </desc>
<link href="https://chemins.be/saintdenis/sentier/51"/><trkseg>
<trkpt lat="50.538251" lon="4.790655"><time>2026-05-07T19:07:02Z</time></trkpt>
<trkpt lat="50.540265" lon="4.790631"><time>2026-05-07T19:17:02Z</time></trkpt>
</trkseg>
</trk>
<trk>
<name>nlbsd52</name>
<cmt>s</cmt>
<desc>Saint-Denis Sentier n°52 </desc>
<link href="https://chemins.be/saintdenis/sentier/52"/><trkseg>
<trkpt lat="50.535198" lon="4.784732"><time>2026-05-07T19:07:02Z</time></trkpt>
<trkpt lat="50.534467" lon="4.785416"><time>2026-05-07T19:17:02Z</time></trkpt>
</trkseg>
</trk>
<trk>
<name>nlbsd53</name>
<cmt>q</cmt>
<desc>Saint-Denis Sentier n°53 </desc>
<link href="https://chemins.be/saintdenis/sentier/53"/><trkseg>
<trkpt lat="50.535021" lon="4.783870"><time>2026-05-07T19:07:02Z</time></trkpt>
<trkpt lat="50.534408" lon="4.784316"><time>2026-05-07T19:17:02Z</time></trkpt>
</trkseg>
</trk>
<trk>
<name>nlbsd54</name>
<cmt>v</cmt>
<desc>Saint-Denis Sentier n°54 </desc>
<link href="https://chemins.be/saintdenis/sentier/54"/><trkseg>
<trkpt lat="50.535013" lon="4.783601"><time>2026-05-07T19:07:02Z</time></trkpt>
<trkpt lat="50.534638" lon="4.782992"><time>2026-05-07T19:17:02Z</time></trkpt>
</trkseg></trk>
<trk>
<name>nlbsd54</name>
<cmt>s</cmt>
<desc>Saint-Denis Sentier n°54 </desc>
<link href="https://chemins.be/saintdenis/sentier/54"/><trkseg>
<trkpt lat="50.534638" lon="4.782992"><time>2026-05-07T19:17:02Z</time></trkpt>
<trkpt lat="50.534783" lon="4.782753"><time>2026-05-07T19:27:02Z</time></trkpt>
<trkpt lat="50.534641" lon="4.782018"><time>2026-05-07T19:37:02Z</time></trkpt>
<trkpt lat="50.534472" lon="4.781692"><time>2026-05-07T19:47:02Z</time></trkpt>
<trkpt lat="50.534617" lon="4.781355"><time>2026-05-07T19:57:02Z</time></trkpt>
</trkseg>
</trk>
<trk>
<name>nlbsd55</name>
<cmt>s</cmt>
<desc>Saint-Denis Sentier n°55 </desc>
<link href="https://chemins.be/saintdenis/sentier/55"/><trkseg>
<trkpt lat="50.537959" lon="4.781836"><time>2026-05-07T19:07:02Z</time></trkpt>
<trkpt lat="50.537342" lon="4.781012"><time>2026-05-07T19:17:02Z</time></trkpt>
<trkpt lat="50.536392" lon="4.780059"><time>2026-05-07T19:27:02Z</time></trkpt>
<trkpt lat="50.535830" lon="4.779052"><time>2026-05-07T19:37:02Z</time></trkpt>
<trkpt lat="50.534133" lon="4.778389"><time>2026-05-07T19:47:02Z</time></trkpt>
</trkseg>
</trk>
<trk>
<name>nlbsd56</name>
<cmt>s</cmt>
<desc>Saint-Denis Sentier n°56 </desc>
<link href="https://chemins.be/saintdenis/sentier/56"/><trkseg>
<trkpt lat="50.537089" lon="4.778753"><time>2026-05-07T19:07:02Z</time></trkpt>
<trkpt lat="50.537260" lon="4.778768"><time>2026-05-07T19:17:02Z</time></trkpt>
<trkpt lat="50.538018" lon="4.777844"><time>2026-05-07T19:27:02Z</time></trkpt>
<trkpt lat="50.538793" lon="4.777315"><time>2026-05-07T19:37:02Z</time></trkpt>
<trkpt lat="50.539534" lon="4.776432"><time>2026-05-07T19:47:02Z</time></trkpt>
</trkseg>
</trk>
<trk>
<name>nlbsd57</name>
<cmt>s</cmt>
<desc>Saint-Denis Sentier n°57 Rue du Noly</desc>
<link href="https://chemins.be/saintdenis/sentier/57"/><trkseg>
<trkpt lat="50.534151" lon="4.780829"><time>2026-05-07T19:07:02Z</time></trkpt>
<trkpt lat="50.532306" lon="4.778754"><time>2026-05-07T19:17:02Z</time></trkpt>
<trkpt lat="50.531095" lon="4.777982"><time>2026-05-07T19:27:02Z</time></trkpt>
<trkpt lat="50.530182" lon="4.777015"><time>2026-05-07T19:37:02Z</time></trkpt>
</trkseg>
</trk>
<trk>
<name>nlbsd58</name>
<cmt>v</cmt>
<desc>Saint-Denis Sentier n°58 </desc>
<link href="https://chemins.be/saintdenis/sentier/58"/><trkseg>
<trkpt lat="50.536686" lon="4.783489"><time>2026-05-07T19:07:02Z</time></trkpt>
<trkpt lat="50.536667" lon="4.783813"><time>2026-05-07T19:17:02Z</time></trkpt>
<trkpt lat="50.536341" lon="4.784431"><time>2026-05-07T19:27:02Z</time></trkpt>
<trkpt lat="50.535826" lon="4.785146"><time>2026-05-07T19:37:02Z</time></trkpt>
</trkseg>
</trk>
<trk>
<name>nlbsd59</name>
<cmt>s</cmt>
<desc>Saint-Denis Sentier n°59 </desc>
<link href="https://chemins.be/saintdenis/sentier/59"/><trkseg>
<trkpt lat="50.535042" lon="4.807582"><time>2026-05-07T19:07:02Z</time></trkpt>
<trkpt lat="50.534871" lon="4.810120"><time>2026-05-07T19:17:02Z</time></trkpt>
<trkpt lat="50.534976" lon="4.810840"><time>2026-05-07T19:27:02Z</time></trkpt>
<trkpt lat="50.534973" lon="4.811658"><time>2026-05-07T19:37:02Z</time></trkpt>
<trkpt lat="50.534970" lon="4.812321"><time>2026-05-07T19:47:02Z</time></trkpt>
<trkpt lat="50.535308" lon="4.813368"><time>2026-05-07T19:57:02Z</time></trkpt>
<trkpt lat="50.535573" lon="4.814443"><time>2026-05-07T20:07:02Z</time></trkpt>
</trkseg>
</trk>
<trk>
<name>nlbsd6</name>
<cmt>r</cmt>
<desc>Saint-Denis Chemin n°6 Chemin de la Taillette / Rue de la Taillette / ?</desc>
<link href="https://chemins.be/saintdenis/chemin/6"/><trkseg>
<trkpt lat="50.536267" lon="4.779832"><time>2026-05-07T19:07:02Z</time></trkpt>
<trkpt lat="50.535848" lon="4.779052"><time>2026-05-07T19:17:02Z</time></trkpt>
<trkpt lat="50.534097" lon="4.778318"><time>2026-05-07T19:27:02Z</time></trkpt>
<trkpt lat="50.534182" lon="4.777303"><time>2026-05-07T19:37:02Z</time></trkpt>
<trkpt lat="50.531519" lon="4.772597"><time>2026-05-07T19:47:02Z</time></trkpt>
<trkpt lat="50.529204" lon="4.766005"><time>2026-05-07T19:57:02Z</time></trkpt>
<trkpt lat="50.528703" lon="4.762644"><time>2026-05-07T20:07:02Z</time></trkpt>
<trkpt lat="50.527908" lon="4.758378"><time>2026-05-07T20:17:02Z</time></trkpt>
</trkseg></trk>
<trk>
<name>nlbsd6</name>
<cmt>s</cmt>
<desc>Saint-Denis Chemin n°6 Chemin de la Taillette / Rue de la Taillette / ?</desc>
<link href="https://chemins.be/saintdenis/chemin/6"/><trkseg>
<trkpt lat="50.527908" lon="4.758378"><time>2026-05-07T20:17:02Z</time></trkpt>
<trkpt lat="50.527748" lon="4.757883"><time>2026-05-07T20:27:02Z</time></trkpt>
</trkseg></trk>
<trk>
<name>nlbsd6</name>
<cmt>v</cmt>
<desc>Saint-Denis Chemin n°6 Chemin de la Taillette / Rue de la Taillette / ?</desc>
<link href="https://chemins.be/saintdenis/chemin/6"/><trkseg>
<trkpt lat="50.527748" lon="4.757883"><time>2026-05-07T20:27:02Z</time></trkpt>
<trkpt lat="50.526632" lon="4.755645"><time>2026-05-07T20:37:02Z</time></trkpt>
<trkpt lat="50.526462" lon="4.755376"><time>2026-05-07T20:47:02Z</time></trkpt>
</trkseg>
</trk>
<trk>
<name>nlbsd60</name>
<cmt>s</cmt>
<desc>Saint-Denis Sentier n°60 </desc>
<link href="https://chemins.be/saintdenis/sentier/60"/><trkseg>
<trkpt lat="50.556988" lon="4.756727"><time>2026-05-07T19:07:02Z</time></trkpt>
<trkpt lat="50.557623" lon="4.757706"><time>2026-05-07T19:17:02Z</time></trkpt>
<trkpt lat="50.558627" lon="4.758674"><time>2026-05-07T19:27:02Z</time></trkpt>
</trkseg>
</trk>
<trk>
<name>nlbsd61</name>
<cmt>s</cmt>
<desc>Saint-Denis Sentier n°61 </desc>
<link href="https://chemins.be/saintdenis/sentier/61"/><trkseg>
<trkpt lat="50.548574" lon="4.762005"><time>2026-05-07T19:07:02Z</time></trkpt>
<trkpt lat="50.549795" lon="4.759673"><time>2026-05-07T19:17:02Z</time></trkpt>
<trkpt lat="50.550272" lon="4.759550"><time>2026-05-07T19:27:02Z</time></trkpt>
</trkseg>
</trk>
<trk>
<name>nlbsd62</name>
<cmt>s</cmt>
<desc>Saint-Denis Sentier n°62 Rue du Moulin</desc>
<link href="https://chemins.be/saintdenis/sentier/62"/><trkseg>
<trkpt lat="50.538395" lon="4.790741"><time>2026-05-07T19:07:02Z</time></trkpt>
<trkpt lat="50.539280" lon="4.789620"><time>2026-05-07T19:17:02Z</time></trkpt>
</trkseg>
</trk>
<trk>
<name>nlbsd63</name>
<cmt>s</cmt>
<desc>Saint-Denis Sentier n°63 Rue Reine Elisabeth</desc>
<link href="https://chemins.be/saintdenis/sentier/63"/><trkseg>
<trkpt lat="50.535386" lon="4.785086"><time>2026-05-07T19:07:02Z</time></trkpt>
<trkpt lat="50.534872" lon="4.785462"><time>2026-05-07T19:17:02Z</time></trkpt>
<trkpt lat="50.534637" lon="4.785756"><time>2026-05-07T19:27:02Z</time></trkpt>
</trkseg>
</trk>
<trk>
<name>nlbsd64</name>
<cmt>s</cmt>
<desc>Saint-Denis Sentier n°64 Rue de Beauffaux</desc>
<link href="https://chemins.be/saintdenis/sentier/64"/><trkseg>
<trkpt lat="50.537508" lon="4.777233"><time>2026-05-07T19:07:02Z</time></trkpt>
<trkpt lat="50.538757" lon="4.774973"><time>2026-05-07T19:17:02Z</time></trkpt>
</trkseg>
</trk>
<trk>
<name>nlbsd65</name>
<cmt>s</cmt>
<desc>Saint-Denis Sentier n°65 Ruelle Proces</desc>
<link href="https://chemins.be/saintdenis/sentier/65"/><trkseg>
<trkpt lat="50.533776" lon="4.780248"><time>2026-05-07T19:07:02Z</time></trkpt>
<trkpt lat="50.533995" lon="4.779262"><time>2026-05-07T19:17:02Z</time></trkpt>
<trkpt lat="50.534088" lon="4.778388"><time>2026-05-07T19:27:02Z</time></trkpt>
</trkseg>
</trk>
<trk>
<name>nlbsd66</name>
<cmt>s</cmt>
<desc>Saint-Denis Chemin n°66 </desc>
<link href="https://chemins.be/saintdenis/chemin/66"/><trkseg>
<trkpt lat="50.533290" lon="4.787733"><time>2026-05-07T19:07:02Z</time></trkpt>
<trkpt lat="50.533305" lon="4.788580"><time>2026-05-07T19:17:02Z</time></trkpt>
</trkseg>
</trk>
<trk>
<name>nlbsd67</name>
<cmt>s</cmt>
<desc>Saint-Denis Sentier n°67 </desc>
<link href="https://chemins.be/saintdenis/sentier/67"/><trkseg>
<trkpt lat="50.542930" lon="4.776998"><time>2026-05-07T19:07:02Z</time></trkpt>
<trkpt lat="50.543444" lon="4.776664"><time>2026-05-07T19:17:02Z</time></trkpt>
<trkpt lat="50.544165" lon="4.776218"><time>2026-05-07T19:27:02Z</time></trkpt>
</trkseg>
</trk>
<trk>
<name>nlbsd7</name>
<cmt>r</cmt>
<desc>Saint-Denis Chemin n°7 Rue de Beauffaux</desc>
<link href="https://chemins.be/saintdenis/chemin/7"/><trkseg>
<trkpt lat="50.543953" lon="4.769853"><time>2026-05-07T19:07:02Z</time></trkpt>
<trkpt lat="50.546666" lon="4.765051"><time>2026-05-07T19:17:02Z</time></trkpt>
<trkpt lat="50.548484" lon="4.762103"><time>2026-05-07T19:27:02Z</time></trkpt>
</trkseg></trk>
<trk>
<name>nlbsd7</name>
<cmt>s</cmt>
<desc>Saint-Denis Chemin n°7 Rue de Beauffaux</desc>
<link href="https://chemins.be/saintdenis/chemin/7"/><trkseg>
<trkpt lat="50.548484" lon="4.762103"><time>2026-05-07T19:27:02Z</time></trkpt>
<trkpt lat="50.550335" lon="4.759466"><time>2026-05-07T19:37:02Z</time></trkpt>
</trkseg></trk>
<trk>
<name>nlbsd7</name>
<cmt>r</cmt>
<desc>Saint-Denis Chemin n°7 Rue de Beauffaux</desc>
<link href="https://chemins.be/saintdenis/chemin/7"/><trkseg>
<trkpt lat="50.550335" lon="4.759466"><time>2026-05-07T19:37:02Z</time></trkpt>
<trkpt lat="50.551045" lon="4.751541"><time>2026-05-07T19:47:02Z</time></trkpt>
</trkseg>
</trk>
<trk>
<name>nlbsd8</name>
<cmt>r</cmt>
<desc>Saint-Denis Chemin n°8 Rue de Beauffaux</desc>
<link href="https://chemins.be/saintdenis/chemin/8"/><trkseg>
<trkpt lat="50.548610" lon="4.762034"><time>2026-05-07T19:07:02Z</time></trkpt>
<trkpt lat="50.549887" lon="4.761903"><time>2026-05-07T19:17:02Z</time></trkpt>
</trkseg></trk>
<trk>
<name>nlbsd8</name>
<cmt>v</cmt>
<desc>Saint-Denis Chemin n°8 Rue de Beauffaux</desc>
<link href="https://chemins.be/saintdenis/chemin/8"/><trkseg>
<trkpt lat="50.549887" lon="4.761903"><time>2026-05-07T19:17:02Z</time></trkpt>
<trkpt lat="50.552701" lon="4.761743"><time>2026-05-07T19:27:02Z</time></trkpt>
<trkpt lat="50.556823" lon="4.756771"><time>2026-05-07T19:37:02Z</time></trkpt>
<trkpt lat="50.557632" lon="4.755848"><time>2026-05-07T19:47:02Z</time></trkpt>
</trkseg>
</trk>
<trk>
<name>nlbsd9</name>
<cmt>r</cmt>
<desc>Saint-Denis Chemin n°9 Rue de la Bolette</desc>
<link href="https://chemins.be/saintdenis/chemin/9"/><trkseg>
<trkpt lat="50.543217" lon="4.769494"><time>2026-05-07T19:07:02Z</time></trkpt>
<trkpt lat="50.543907" lon="4.770276"><time>2026-05-07T19:17:02Z</time></trkpt>
<trkpt lat="50.545388" lon="4.773336"><time>2026-05-07T19:27:02Z</time></trkpt>
<trkpt lat="50.547134" lon="4.775369"><time>2026-05-07T19:37:02Z</time></trkpt>
</trkseg>
</trk>
<trk>
<name>nlbsdi1</name>
<cmt>v</cmt>
<desc>Saint-Denis Sentier n°i1 </desc>
<link href="https://chemins.be/saintdenis/sentier/i1"/><trkseg>
<trkpt lat="50.538501" lon="4.805879"><time>2026-05-07T19:07:02Z</time></trkpt>
<trkpt lat="50.537693" lon="4.803942"><time>2026-05-07T19:17:02Z</time></trkpt>
<trkpt lat="50.536977" lon="4.802324"><time>2026-05-07T19:27:02Z</time></trkpt>
<trkpt lat="50.535349" lon="4.800109"><time>2026-05-07T19:37:02Z</time></trkpt>
<trkpt lat="50.534290" lon="4.798274"><time>2026-05-07T19:47:02Z</time></trkpt>
<trkpt lat="50.533204" lon="4.797503"><time>2026-05-07T19:57:02Z</time></trkpt>
</trkseg>
</trk>
<trk>
<name>nlbsdi2</name>
<cmt>s</cmt>
<desc>Saint-Denis Sentier n°i2 </desc>
<link href="https://chemins.be/saintdenis/sentier/i2"/><trkseg>
<trkpt lat="50.531562" lon="4.790694"><time>2026-05-07T19:07:02Z</time></trkpt>
<trkpt lat="50.532332" lon="4.791745"><time>2026-05-07T19:17:02Z</time></trkpt>
<trkpt lat="50.532485" lon="4.791662"><time>2026-05-07T19:27:02Z</time></trkpt>
<trkpt lat="50.533127" lon="4.793078"><time>2026-05-07T19:37:02Z</time></trkpt>
<trkpt lat="50.533749" lon="4.795129"><time>2026-05-07T19:47:02Z</time></trkpt>
<trkpt lat="50.533818" lon="4.795807"><time>2026-05-07T19:57:02Z</time></trkpt>
<trkpt lat="50.533581" lon="4.796721"><time>2026-05-07T20:07:02Z</time></trkpt>
<trkpt lat="50.533228" lon="4.797325"><time>2026-05-07T20:17:02Z</time></trkpt>
</trkseg>
</trk>
<trk>
<name>nlbsdi5</name>
<cmt>q</cmt>
<desc>Saint-Denis Sentier n°i5 </desc>
<link href="https://chemins.be/saintdenis/sentier/i5"/><trkseg>
<trkpt lat="50.535703" lon="4.789306"><time>2026-05-07T19:07:02Z</time></trkpt>
<trkpt lat="50.535830" lon="4.789025"><time>2026-05-07T19:17:02Z</time></trkpt>
<trkpt lat="50.536129" lon="4.788323"><time>2026-05-07T19:27:02Z</time></trkpt>
<trkpt lat="50.536537" lon="4.787353"><time>2026-05-07T19:37:02Z</time></trkpt>
</trkseg>
</trk>
<trk>
<name>nlbsdL161</name>
<cmt>t</cmt>
<desc>Saint-Denis Chemin n°L161 </desc>
<link href="https://chemins.be/saintdenis/chemin/L161"/><trkseg>
<trkpt lat="50.520490" lon="4.769443"><time>2026-05-07T19:07:02Z</time></trkpt>
<trkpt lat="50.527829" lon="4.758039"><time>2026-05-07T19:17:02Z</time></trkpt>
</trkseg>
</trk>
<trk>
<name>nlbsdr18</name>
<cmt>v</cmt>
<desc>Saint-Denis Chemin de remembrement n°r18 </desc>
<link href="https://chemins.be/saintdenis/chemin/r18"/><trkseg>
<trkpt lat="50.546477" lon="4.765120"><time>2026-05-07T19:07:02Z</time></trkpt>
<trkpt lat="50.545241" lon="4.763882"><time>2026-05-07T19:17:02Z</time></trkpt>
<trkpt lat="50.540712" lon="4.757919"><time>2026-05-07T19:27:02Z</time></trkpt>
<trkpt lat="50.542553" lon="4.755959"><time>2026-05-07T19:37:02Z</time></trkpt>
</trkseg>
</trk>
<trk>
<name>nlbsdr19</name>
<cmt>r</cmt>
<desc>Saint-Denis Chemin de remembrement n°r19 Rue des Bruyères</desc>
<link href="https://chemins.be/saintdenis/chemin/r19"/><trkseg>
<trkpt lat="50.535153" lon="4.769468"><time>2026-05-07T19:07:02Z</time></trkpt>
<trkpt lat="50.532997" lon="4.766178"><time>2026-05-07T19:17:02Z</time></trkpt>
</trkseg></trk>
<trk>
<name>nlbsdr19</name>
<cmt>v</cmt>
<desc>Saint-Denis Chemin de remembrement n°r19 Rue des Bruyères</desc>
<link href="https://chemins.be/saintdenis/chemin/r19"/><trkseg>
<trkpt lat="50.532997" lon="4.766178"><time>2026-05-07T19:17:02Z</time></trkpt>
<trkpt lat="50.536317" lon="4.760154"><time>2026-05-07T19:27:02Z</time></trkpt>
</trkseg>
</trk>
<trk>
<name>nlbsdr20</name>
<cmt>d</cmt>
<desc>Saint-Denis Chemin de remembrement n°r20 </desc>
<link href="https://chemins.be/saintdenis/chemin/r20"/><trkseg>
<trkpt lat="50.534939" lon="4.758154"><time>2026-05-07T19:07:02Z</time></trkpt>
<trkpt lat="50.534768" lon="4.758307"><time>2026-05-07T19:17:02Z</time></trkpt>
</trkseg>
</trk>
<trk>
<name>nlbsdr23</name>
<cmt>v</cmt>
<desc>Saint-Denis Chemin de remembrement n°r23 </desc>
<link href="https://chemins.be/saintdenis/chemin/r23"/><trkseg>
<trkpt lat="50.529275" lon="4.794313"><time>2026-05-07T19:07:02Z</time></trkpt>
<trkpt lat="50.530286" lon="4.795662"><time>2026-05-07T19:17:02Z</time></trkpt>
<trkpt lat="50.531368" lon="4.797040"><time>2026-05-07T19:27:02Z</time></trkpt>
</trkseg>
</trk>
<trk>
<name>nlbsdr3</name>
<cmt>r</cmt>
<desc>Saint-Denis Chemin de remembrement n°r3 Rue Del'Abbaye</desc>
<link href="https://chemins.be/saintdenis/chemin/r3"/><trkseg>
<trkpt lat="50.550715" lon="4.756153"><time>2026-05-07T19:07:02Z</time></trkpt>
<trkpt lat="50.543272" lon="4.750505"><time>2026-05-07T19:17:02Z</time></trkpt>
<trkpt lat="50.542425" lon="4.748311"><time>2026-05-07T19:27:02Z</time></trkpt>
</trkseg>
</trk>
<trk>
<name>nlbsdr31</name>
<cmt>v</cmt>
<desc>Saint-Denis Chemin de remembrement n°r31 </desc>
<link href="https://chemins.be/saintdenis/chemin/r31"/><trkseg>
<trkpt lat="50.530807" lon="4.783353"><time>2026-05-07T19:07:02Z</time></trkpt>
<trkpt lat="50.530746" lon="4.782788"><time>2026-05-07T19:17:02Z</time></trkpt>
<trkpt lat="50.530514" lon="4.782222"><time>2026-05-07T19:27:02Z</time></trkpt>
</trkseg>
</trk>
<trk>
<name>nlbsdr4</name>
<cmt>r</cmt>
<desc>Saint-Denis Chemin de remembrement n°r4 Rue de la Bolette</desc>
<link href="https://chemins.be/saintdenis/chemin/r4"/><trkseg>
<trkpt lat="50.543181" lon="4.769395"><time>2026-05-07T19:07:02Z</time></trkpt>
<trkpt lat="50.536371" lon="4.760140"><time>2026-05-07T19:17:02Z</time></trkpt>
<trkpt lat="50.534948" lon="4.758182"><time>2026-05-07T19:27:02Z</time></trkpt>
<trkpt lat="50.535366" lon="4.757043"><time>2026-05-07T19:37:02Z</time></trkpt>
</trkseg>
</trk>
<trk>
<name>nlbsdr5</name>
<cmt>r</cmt>
<desc>Saint-Denis Chemin de remembrement n°r5 Rue du Chemin de Fer</desc>
<link href="https://chemins.be/saintdenis/chemin/r5"/><trkseg>
<trkpt lat="50.522452" lon="4.771321"><time>2026-05-07T19:07:02Z</time></trkpt>
<trkpt lat="50.523327" lon="4.770623"><time>2026-05-07T19:17:02Z</time></trkpt>
<trkpt lat="50.525104" lon="4.768678"><time>2026-05-07T19:27:02Z</time></trkpt>
<trkpt lat="50.525606" lon="4.766609"><time>2026-05-07T19:37:02Z</time></trkpt>
</trkseg>
</trk>
</gpx>